User: anonymous   Login
Location: Unspecified
(0.0000°N, 0.0000°E)
Time: 00:38:44
(UTC+00:00)
Language:

Picosat 9 - Orbit

View from above orbital plane
View from above orbital plane
View from above satellite
View from above satellite

Ground track
Ground track

The orbit data is extracted from the following two-line orbital elements,

1 26930U 01043B   21023.86145109 -.00000047  00000-0  14035-4 0  9999
2 26930  66.9996 244.1540 0007757 307.4587  52.5807 14.30730932  8958
Epoch (UTC): 23 January 2021 20:40:29
Eccentricity: 0.0007757
inclination: 66.9996°
perigee height: 784 km
apogee height: 795 km
right ascension of ascending node: 244.1540°
argument of perigee: 307.4587°
revolutions per day: 14.30730932
mean anomaly at epoch: 52.5807°
orbit number at epoch: 895

The dashed part of the orbit path shows where the satellite is in the earth's shadow,  

DLR